owner,sensor,date,latitude,longitude,air_pressure(mBar),qcFlag 
TABS,ioos:station:wmo:42047:1,2017-02-01T00:00:00Z,27.8966,-93.5973,1019.11,11111222 
TABS,ioos:station:wmo:42047:1,2017-02-01T00:30:00Z,27.8966,-93.5973,1019.04,11111222 
TABS,ioos:station:wmo:42047:1,2017-02-01T01:00:00Z,27.8966,-93.5973,1019.2,11111222 
TABS,ioos:station:wmo:42047:1,2017-02-01T01:30:00Z,27.8966,-93.5973,1019.07,11111222 
TABS,ioos:station:wmo:42047:1,2017-02-01T02:00:00Z,27.8966,-93.5973,1019.17,11111222 
TABS,ioos:station:wmo:42047:1,2017-02-01T02:30:00Z,27.8966,-93.5973,1019.01,11111222 
TABS,ioos:station:wmo:42047:1,2017-02-01T03:00:00Z,27.8966,-93.5973,1018.86,11111222 
TABS,ioos:station:wmo:42047:1,2017-02-01T03:30:00Z,27.8966,-93.5973,1018.75,11111222 
TABS,ioos:station:wmo:42047:1,2017-02-01T04:00:00Z,27.8966,-93.5973,1018.69,11111222 
TABS,ioos:station:wmo:42047:1,2017-02-01T04:30:00Z,27.8966,-93.5973,1018.63,11111222 
TABS,ioos:station:wmo:42047:1,2017-02-01T05:00:00Z,27.8966,-93.5973,1018.47,11111222 
TABS,ioos:station:wmo:42047:1,2017-02-01T05:30:00Z,27.8966,-93.5973,1018.52,11111222 
TABS,ioos:station:wmo:42047:1,2017-02-01T06:00:00Z,27.8966,-93.5973,1018.33,11111222 
TABS,ioos:station:wmo:42047:1,2017-02-01T06:30:00Z,27.8966,-93.5973,1018.28,11111222 
TABS,ioos:station:wmo:42047:1,2017-02-01T07:00:00Z,27.8966,-93.5973,1018.09,11111222 
TABS,ioos:station:wmo:42047:1,2017-02-01T07:30:00Z,27.8966,-93.5973,1017.74,11111222 
TABS,ioos:station:wmo:42047:1,2017-02-01T08:00:00Z,27.8966,-93.5973,1017.48,11111222 
TABS,ioos:station:wmo:42047:1,2017-02-01T08:30:00Z,27.8966,-93.5973,1017.26,11111222 
TABS,ioos:station:wmo:42047:1,2017-02-01T09:00:00Z,27.8966,-93.5973,1017.27,11111222 
TABS,ioos:station:wmo:42047:1,2017-02-01T09:30:00Z,27.8966,-93.5973,1017.36,11111222 
TABS,ioos:station:wmo:42047:1,2017-02-01T10:00:00Z,27.8966,-93.5973,1017.55,11111222 
TABS,ioos:station:wmo:42047:1,2017-02-01T10:30:00Z,27.8966,-93.5973,1017.49,11111222 
TABS,ioos:station:wmo:42047:1,2017-02-01T11:00:00Z,27.8966,-93.5973,1017.58,11111222 
TABS,ioos:station:wmo:42047:1,2017-02-01T11:30:00Z,27.8966,-93.5973,1017.76,11111222 
TABS,ioos:station:wmo:42047:1,2017-02-01T12:00:00Z,27.8966,-93.5973,1018.0,11111222 
TABS,ioos:station:wmo:42047:1,2017-02-01T12:30:00Z,27.8966,-93.5973,1017.87,11111222 
TABS,ioos:station:wmo:42047:1,2017-02-01T13:00:00Z,27.8966,-93.5973,1017.97,11111222 
TABS,ioos:station:wmo:42047:1,2017-02-01T13:30:00Z,27.8966,-93.5973,1018.29,11111222 
TABS,ioos:station:wmo:42047:1,2017-02-01T14:00:00Z,27.8966,-93.5973,1018.57,11111222 
TABS,ioos:station:wmo:42047:1,2017-02-01T14:30:00Z,27.8966,-93.5973,1019.17,11111222 
TABS,ioos:station:wmo:42047:1,2017-02-01T15:00:00Z,27.8966,-93.5973,1019.43,11111222 
TABS,ioos:station:wmo:42047:1,2017-02-01T15:30:00Z,27.8966,-93.5973,1019.62,11111222 
TABS,ioos:station:wmo:42047:1,2017-02-01T16:00:00Z,27.8966,-93.5973,1019.78,11111222 
TABS,ioos:station:wmo:42047:1,2017-02-01T16:30:00Z,27.8966,-93.5973,1019.67,11111222 
TABS,ioos:station:wmo:42047:1,2017-02-01T17:00:00Z,27.8966,-93.5973,1019.32,11111222 
TABS,ioos:station:wmo:42047:1,2017-02-01T17:30:00Z,27.8966,-93.5973,1018.87,11111222 
TABS,ioos:station:wmo:42047:1,2017-02-01T18:00:00Z,27.8966,-93.5973,1018.54,11111222 
TABS,ioos:station:wmo:42047:1,2017-02-01T18:30:00Z,27.8966,-93.5973,1018.12,11111222 
TABS,ioos:station:wmo:42047:1,2017-02-01T19:00:00Z,27.8966,-93.5973,1017.73,11111222 
TABS,ioos:station:wmo:42047:1,2017-02-01T19:30:00Z,27.8966,-93.5973,1017.58,11111222 
TABS,ioos:station:wmo:42047:1,2017-02-01T20:00:00Z,27.8966,-93.5973,1017.34,11111222 
TABS,ioos:station:wmo:42047:1,2017-02-01T20:30:00Z,27.8966,-93.5973,1017.27,11111222 
TABS,ioos:station:wmo:42047:1,2017-02-01T21:00:00Z,27.8966,-93.5973,1017.26,11111222 
TABS,ioos:station:wmo:42047:1,2017-02-01T21:30:00Z,27.8966,-93.5973,1017.45,11111222 
TABS,ioos:station:wmo:42047:1,2017-02-01T22:00:00Z,27.8966,-93.5973,1017.57,11111222 
TABS,ioos:station:wmo:42047:1,2017-02-01T22:30:00Z,27.8966,-93.5973,1017.83,11111222 
TABS,ioos:station:wmo:42047:1,2017-02-01T23:00:00Z,27.8966,-93.5973,1017.87,11111222 
TABS,ioos:station:wmo:42047:1,2017-02-01T23:30:00Z,27.8966,-93.5973,1018.06,11111222 
TABS,ioos:station:wmo:42047:1,2017-02-02T00:00:00Z,27.8966,-93.5973,1018.15,11111222 
TABS,ioos:station:wmo:42047:1,2017-02-02T00:30:00Z,27.8966,-93.5973,1018.23,11111222 
TABS,ioos:station:wmo:42047:1,2017-02-02T01:00:00Z,27.8966,-93.5973,1018.13,11111222 
TABS,ioos:station:wmo:42047:1,2017-02-02T01:30:00Z,27.8966,-93.5973,1018.56,11111222 
TABS,ioos:station:wmo:42047:1,2017-02-02T02:00:00Z,27.8966,-93.5973,1018.72,11111222 
TABS,ioos:station:wmo:42047:1,2017-02-02T02:30:00Z,27.8966,-93.5973,1018.84,11111222 
TABS,ioos:station:wmo:42047:1,2017-02-02T03:00:00Z,27.8966,-93.5973,1018.85,11111222 
TABS,ioos:station:wmo:42047:1,2017-02-02T03:30:00Z,27.8966,-93.5973,1018.81,11111222 
TABS,ioos:station:wmo:42047:1,2017-02-02T04:00:00Z,27.8966,-93.5973,1019.02,11111222 
TABS,ioos:station:wmo:42047:1,2017-02-02T04:30:00Z,27.8966,-93.5973,1019.17,11111222 
TABS,ioos:station:wmo:42047:1,2017-02-02T05:00:00Z,27.8966,-93.5973,1019.37,11111222 
TABS,ioos:station:wmo:42047:1,2017-02-02T05:30:00Z,27.8966,-93.5973,1019.05,11111222 
TABS,ioos:station:wmo:42047:1,2017-02-02T06:00:00Z,27.8966,-93.5973,1019.11,11111222 
TABS,ioos:station:wmo:42047:1,2017-02-02T06:30:00Z,27.8966,-93.5973,1019.12,11111222 
TABS,ioos:station:wmo:42047:1,2017-02-02T07:00:00Z,27.8966,-93.5973,1019.09,11111222 
TABS,ioos:station:wmo:42047:1,2017-02-02T07:30:00Z,27.8966,-93.5973,1019.0,11111222 
TABS,ioos:station:wmo:42047:1,2017-02-02T08:00:00Z,27.8966,-93.5973,1019.19,11111222 
TABS,ioos:station:wmo:42047:1,2017-02-02T08:30:00Z,27.8966,-93.5973,1019.02,11111222 
TABS,ioos:station:wmo:42047:1,2017-02-02T09:00:00Z,27.8966,-93.5973,1018.88,11111222 
TABS,ioos:station:wmo:42047:1,2017-02-02T09:30:00Z,27.8966,-93.5973,1019.27,11111222 
TABS,ioos:station:wmo:42047:1,2017-02-02T10:00:00Z,27.8966,-93.5973,1019.45,11111222 
TABS,ioos:station:wmo:42047:1,2017-02-02T10:30:00Z,27.8966,-93.5973,1019.56,11111222 
TABS,ioos:station:wmo:42047:1,2017-02-02T11:00:00Z,27.8966,-93.5973,1019.94,11111222 
TABS,ioos:station:wmo:42047:1,2017-02-02T11:30:00Z,27.8966,-93.5973,1019.99,11111222 
TABS,ioos:station:wmo:42047:1,2017-02-02T12:00:00Z,27.8966,-93.5973,1020.33,11111222 
TABS,ioos:station:wmo:42047:1,2017-02-02T12:30:00Z,27.8966,-93.5973,1020.68,11111222 
TABS,ioos:station:wmo:42047:1,2017-02-02T13:00:00Z,27.8966,-93.5973,1020.91,11111222 
TABS,ioos:station:wmo:42047:1,2017-02-02T13:30:00Z,27.8966,-93.5973,1021.18,11111222 
TABS,ioos:station:wmo:42047:1,2017-02-02T14:00:00Z,27.8966,-93.5973,1021.41,11111222 
TABS,ioos:station:wmo:42047:1,2017-02-02T14:30:00Z,27.8966,-93.5973,1021.62,11111222 
TABS,ioos:station:wmo:42047:1,2017-02-02T15:00:00Z,27.8966,-93.5973,1021.92,11111222 
TABS,ioos:station:wmo:42047:1,2017-02-02T15:30:00Z,27.8966,-93.5973,1022.09,11111222 
TABS,ioos:station:wmo:42047:1,2017-02-02T16:00:00Z,27.8966,-93.5973,1022.48,11111222 
TABS,ioos:station:wmo:42047:1,2017-02-02T16:30:00Z,27.8966,-93.5973,1022.35,11111222 
TABS,ioos:station:wmo:42047:1,2017-02-02T17:00:00Z,27.8966,-93.5973,1022.29,11111222 
TABS,ioos:station:wmo:42047:1,2017-02-02T17:30:00Z,27.8966,-93.5973,1021.99,11111222 
TABS,ioos:station:wmo:42047:1,2017-02-02T18:00:00Z,27.8966,-93.5973,1021.79,11111222 
TABS,ioos:station:wmo:42047:1,2017-02-02T18:30:00Z,27.8966,-93.5973,1021.16,11111222 
TABS,ioos:station:wmo:42047:1,2017-02-02T19:00:00Z,27.8966,-93.5973,1020.98,11111222 
TABS,ioos:station:wmo:42047:1,2017-02-02T19:30:00Z,27.8966,-93.5973,1020.79,11111222 
TABS,ioos:station:wmo:42047:1,2017-02-02T20:00:00Z,27.8966,-93.5973,1020.45,11111222 
TABS,ioos:station:wmo:42047:1,2017-02-02T20:30:00Z,27.8966,-93.5973,1020.31,11111222 
TABS,ioos:station:wmo:42047:1,2017-02-02T21:00:00Z,27.8966,-93.5973,1020.37,11111222 
TABS,ioos:station:wmo:42047:1,2017-02-02T21:30:00Z,27.8966,-93.5973,1020.31,11111222 
TABS,ioos:station:wmo:42047:1,2017-02-02T22:00:00Z,27.8966,-93.5973,1020.47,11111222 
TABS,ioos:station:wmo:42047:1,2017-02-02T22:30:00Z,27.8966,-93.5973,1020.61,11111222 
TABS,ioos:station:wmo:42047:1,2017-02-02T23:00:00Z,27.8966,-93.5973,1020.88,11111222 
TABS,ioos:station:wmo:42047:1,2017-02-02T23:30:00Z,27.8966,-93.5973,1021.31,11111222 
TABS,ioos:station:wmo:42047:1,2017-02-03T00:00:00Z,27.8966,-93.5973,1021.39,11111222 
TABS,ioos:station:wmo:42047:1,2017-02-03T00:30:00Z,27.8966,-93.5973,1021.49,11111222 
TABS,ioos:station:wmo:42047:1,2017-02-03T01:00:00Z,27.8966,-93.5973,1021.4,11111222 
TABS,ioos:station:wmo:42047:1,2017-02-03T01:30:00Z,27.8966,-93.5973,1021.41,11111222 
TABS,ioos:station:wmo:42047:1,2017-02-03T02:00:00Z,27.8966,-93.5973,1021.67,11111222 
TABS,ioos:station:wmo:42047:1,2017-02-03T02:30:00Z,27.8966,-93.5973,1021.69,11111222 
TABS,ioos:station:wmo:42047:1,2017-02-03T03:00:00Z,27.8966,-93.5973,1021.78,11111222 
TABS,ioos:station:wmo:42047:1,2017-02-03T03:30:00Z,27.8966,-93.5973,1021.91,11111222 
TABS,ioos:station:wmo:42047:1,2017-02-03T04:00:00Z,27.8966,-93.5973,1022.22,11111222 
TABS,ioos:station:wmo:42047:1,2017-02-03T04:30:00Z,27.8966,-93.5973,1022.22,11111222 
TABS,ioos:station:wmo:42047:1,2017-02-03T05:00:00Z,27.8966,-93.5973,1022.37,11111222 
TABS,ioos:station:wmo:42047:1,2017-02-03T05:30:00Z,27.8966,-93.5973,1022.33,11111222 
TABS,ioos:station:wmo:42047:1,2017-02-03T06:00:00Z,27.8966,-93.5973,1021.94,11111222 
TABS,ioos:station:wmo:42047:1,2017-02-03T06:30:00Z,27.8966,-93.5973,1021.8,11111222 
TABS,ioos:station:wmo:42047:1,2017-02-03T07:00:00Z,27.8966,-93.5973,1021.73,11111222 
TABS,ioos:station:wmo:42047:1,2017-02-03T07:30:00Z,27.8966,-93.5973,1021.77,11111222 
TABS,ioos:station:wmo:42047:1,2017-02-03T08:00:00Z,27.8966,-93.5973,1021.63,11111222 
TABS,ioos:station:wmo:42047:1,2017-02-03T08:30:00Z,27.8966,-93.5973,1021.4,11111222 
TABS,ioos:station:wmo:42047:1,2017-02-03T09:00:00Z,27.8966,-93.5973,1021.18,11111222 
TABS,ioos:station:wmo:42047:1,2017-02-03T09:30:00Z,27.8966,-93.5973,1021.13,11111222 
TABS,ioos:station:wmo:42047:1,2017-02-03T10:00:00Z,27.8966,-93.5973,1021.14,11111222 
TABS,ioos:station:wmo:42047:1,2017-02-03T10:30:00Z,27.8966,-93.5973,1021.31,11111222 
TABS,ioos:station:wmo:42047:1,2017-02-03T11:00:00Z,27.8966,-93.5973,1021.49,11111222 
TABS,ioos:station:wmo:42047:1,2017-02-03T11:30:00Z,27.8966,-93.5973,1021.92,11111222 
TABS,ioos:station:wmo:42047:1,2017-02-03T12:00:00Z,27.8966,-93.5973,1022.18,11111222 
TABS,ioos:station:wmo:42047:1,2017-02-03T12:30:00Z,27.8966,-93.5973,1022.39,11111222 
TABS,ioos:station:wmo:42047:1,2017-02-03T13:00:00Z,27.8966,-93.5973,1022.84,11111222 
TABS,ioos:station:wmo:42047:1,2017-02-03T13:30:00Z,27.8966,-93.5973,1023.42,11111222 
TABS,ioos:station:wmo:42047:1,2017-02-03T14:00:00Z,27.8966,-93.5973,1023.85,11111222 
TABS,ioos:station:wmo:42047:1,2017-02-03T14:30:00Z,27.8966,-93.5973,1024.4,11111222 
TABS,ioos:station:wmo:42047:1,2017-02-03T15:00:00Z,27.8966,-93.5973,1024.8,11111222 
TABS,ioos:station:wmo:42047:1,2017-02-03T15:30:00Z,27.8966,-93.5973,1025.28,11111222 
TABS,ioos:station:wmo:42047:1,2017-02-03T16:00:00Z,27.8966,-93.5973,1025.47,11111222 
TABS,ioos:station:wmo:42047:1,2017-02-03T16:30:00Z,27.8966,-93.5973,1025.9,11111222 
TABS,ioos:station:wmo:42047:1,2017-02-03T17:00:00Z,27.8966,-93.5973,1025.64,11111222 
TABS,ioos:station:wmo:42047:1,2017-02-03T17:30:00Z,27.8966,-93.5973,1025.26,11111222 
TABS,ioos:station:wmo:42047:1,2017-02-03T18:00:00Z,27.8966,-93.5973,1024.92,11111222 
TABS,ioos:station:wmo:42047:1,2017-02-03T18:30:00Z,27.8966,-93.5973,1024.61,11111222 
TABS,ioos:station:wmo:42047:1,2017-02-03T19:00:00Z,27.8966,-93.5973,1024.27,11111222 
TABS,ioos:station:wmo:42047:1,2017-02-03T19:30:00Z,27.8966,-93.5973,1024.37,11111222 
TABS,ioos:station:wmo:42047:1,2017-02-03T20:00:00Z,27.8966,-93.5973,1023.98,11111222 
TABS,ioos:station:wmo:42047:1,2017-02-03T20:30:00Z,27.8966,-93.5973,1023.65,11111222 
TABS,ioos:station:wmo:42047:1,2017-02-03T21:00:00Z,27.8966,-93.5973,1023.66,11111222 
TABS,ioos:station:wmo:42047:1,2017-02-03T21:30:00Z,27.8966,-93.5973,1023.33,11111222 
TABS,ioos:station:wmo:42047:1,2017-02-03T22:00:00Z,27.8966,-93.5973,1023.78,11111222 
TABS,ioos:station:wmo:42047:1,2017-02-03T22:30:00Z,27.8966,-93.5973,1023.95,11111222 
TABS,ioos:station:wmo:42047:1,2017-02-03T23:00:00Z,27.8966,-93.5973,1024.43,11111222 
TABS,ioos:station:wmo:42047:1,2017-02-03T23:30:00Z,27.8966,-93.5973,1024.32,11111222 
TABS,ioos:station:wmo:42047:1,2017-02-04T00:00:00Z,27.8966,-93.5973,1024.74,11111222 
TABS,ioos:station:wmo:42047:1,2017-02-04T00:30:00Z,27.8966,-93.5973,1024.84,11111222 
TABS,ioos:station:wmo:42047:1,2017-02-04T01:00:00Z,27.8966,-93.5973,1025.13,11111222 
TABS,ioos:station:wmo:42047:1,2017-02-04T01:30:00Z,27.8966,-93.5973,1025.45,11111222 
TABS,ioos:station:wmo:42047:1,2017-02-04T02:00:00Z,27.8966,-93.5973,1025.61,11111222 
TABS,ioos:station:wmo:42047:1,2017-02-04T02:30:00Z,27.8966,-93.5973,1026.32,11111222 
TABS,ioos:station:wmo:42047:1,2017-02-04T03:00:00Z,27.8966,-93.5973,1026.31,11111222 
TABS,ioos:station:wmo:42047:1,2017-02-04T03:30:00Z,27.8966,-93.5973,1026.07,11111222 
TABS,ioos:station:wmo:42047:1,2017-02-04T04:00:00Z,27.8966,-93.5973,1026.2,11111222 
TABS,ioos:station:wmo:42047:1,2017-02-04T04:30:00Z,27.8966,-93.5973,1026.21,11111222 
TABS,ioos:station:wmo:42047:1,2017-02-04T05:00:00Z,27.8966,-93.5973,1026.12,11111222 
TABS,ioos:station:wmo:42047:1,2017-02-04T05:30:00Z,27.8966,-93.5973,1025.86,11111222 
TABS,ioos:station:wmo:42047:1,2017-02-04T06:00:00Z,27.8966,-93.5973,1025.43,11111222 
TABS,ioos:station:wmo:42047:1,2017-02-04T06:30:00Z,27.8966,-93.5973,1025.46,11111222 
TABS,ioos:station:wmo:42047:1,2017-02-04T07:00:00Z,27.8966,-93.5973,1025.17,11111222 
TABS,ioos:station:wmo:42047:1,2017-02-04T07:30:00Z,27.8966,-93.5973,1024.94,11111222 
TABS,ioos:station:wmo:42047:1,2017-02-04T08:00:00Z,27.8966,-93.5973,1024.6,11111222 
TABS,ioos:station:wmo:42047:1,2017-02-04T08:30:00Z,27.8966,-93.5973,1024.23,11111222 
TABS,ioos:station:wmo:42047:1,2017-02-04T09:00:00Z,27.8966,-93.5973,1024.17,11111222 
TABS,ioos:station:wmo:42047:1,2017-02-04T09:30:00Z,27.8966,-93.5973,1023.92,11111222 
TABS,ioos:station:wmo:42047:1,2017-02-04T10:00:00Z,27.8966,-93.5973,1023.71,11111222 
TABS,ioos:station:wmo:42047:1,2017-02-04T10:30:00Z,27.8966,-93.5973,1023.64,11111222 
TABS,ioos:station:wmo:42047:1,2017-02-04T11:00:00Z,27.8966,-93.5973,1023.75,11111222 
TABS,ioos:station:wmo:42047:1,2017-02-04T11:30:00Z,27.8966,-93.5973,1023.62,11111222 
TABS,ioos:station:wmo:42047:1,2017-02-04T12:00:00Z,27.8966,-93.5973,1023.9,11111222 
TABS,ioos:station:wmo:42047:1,2017-02-04T12:30:00Z,27.8966,-93.5973,1023.81,11111222 
TABS,ioos:station:wmo:42047:1,2017-02-04T13:00:00Z,27.8966,-93.5973,1023.91,11111222 
TABS,ioos:station:wmo:42047:1,2017-02-04T13:30:00Z,27.8966,-93.5973,1024.24,11111222 
TABS,ioos:station:wmo:42047:1,2017-02-04T14:00:00Z,27.8966,-93.5973,1024.05,11111222 
TABS,ioos:station:wmo:42047:1,2017-02-04T14:30:00Z,27.8966,-93.5973,1024.51,11111222 
TABS,ioos:station:wmo:42047:1,2017-02-04T15:00:00Z,27.8966,-93.5973,1024.88,11111222 
TABS,ioos:station:wmo:42047:1,2017-02-04T15:30:00Z,27.8966,-93.5973,1025.1,11111222 
TABS,ioos:station:wmo:42047:1,2017-02-04T16:00:00Z,27.8966,-93.5973,1025.26,11111222 
TABS,ioos:station:wmo:42047:1,2017-02-04T16:30:00Z,27.8966,-93.5973,1025.58,11111222 
TABS,ioos:station:wmo:42047:1,2017-02-04T17:00:00Z,27.8966,-93.5973,1025.09,11111222 
TABS,ioos:station:wmo:42047:1,2017-02-04T17:30:00Z,27.8966,-93.5973,1024.7,11111222 
TABS,ioos:station:wmo:42047:1,2017-02-04T18:00:00Z,27.8966,-93.5973,1023.98,11111222 
TABS,ioos:station:wmo:42047:1,2017-02-04T18:30:00Z,27.8966,-93.5973,1023.41,11111222 
TABS,ioos:station:wmo:42047:1,2017-02-04T19:00:00Z,27.8966,-93.5973,1022.85,11111222 
TABS,ioos:station:wmo:42047:1,2017-02-04T19:30:00Z,27.8966,-93.5973,1022.21,11111222 
TABS,ioos:station:wmo:42047:1,2017-02-04T20:00:00Z,27.8966,-93.5973,1021.95,11111222 
TABS,ioos:station:wmo:42047:1,2017-02-04T20:30:00Z,27.8966,-93.5973,1021.72,11111222 
TABS,ioos:station:wmo:42047:1,2017-02-04T21:00:00Z,27.8966,-93.5973,1021.95,11111222 
TABS,ioos:station:wmo:42047:1,2017-02-04T21:30:00Z,27.8966,-93.5973,1021.48,11111222 
TABS,ioos:station:wmo:42047:1,2017-02-04T22:00:00Z,27.8966,-93.5973,1021.64,11111222 
TABS,ioos:station:wmo:42047:1,2017-02-04T22:30:00Z,27.8966,-93.5973,1021.67,11111222 
TABS,ioos:station:wmo:42047:1,2017-02-04T23:00:00Z,27.8966,-93.5973,1021.85,11111222 
TABS,ioos:station:wmo:42047:1,2017-02-04T23:30:00Z,27.8966,-93.5973,1021.83,11111222 
TABS,ioos:station:wmo:42047:1,2017-02-05T00:00:00Z,27.8966,-93.5973,1022.0,11111222 
TABS,ioos:station:wmo:42047:1,2017-02-05T00:30:00Z,27.8966,-93.5973,1021.81,11111222 
TABS,ioos:station:wmo:42047:1,2017-02-05T01:00:00Z,27.8966,-93.5973,1022.12,11111222 
TABS,ioos:station:wmo:42047:1,2017-02-05T01:30:00Z,27.8966,-93.5973,1021.79,11111222 
TABS,ioos:station:wmo:42047:1,2017-02-05T02:00:00Z,27.8966,-93.5973,1022.11,11111222 
TABS,ioos:station:wmo:42047:1,2017-02-05T02:30:00Z,27.8966,-93.5973,1022.19,11111222 
TABS,ioos:station:wmo:42047:1,2017-02-05T03:00:00Z,27.8966,-93.5973,1022.13,11111222 
TABS,ioos:station:wmo:42047:1,2017-02-05T03:30:00Z,27.8966,-93.5973,1021.97,11111222 
TABS,ioos:station:wmo:42047:1,2017-02-05T04:00:00Z,27.8966,-93.5973,1022.08,11111222 
TABS,ioos:station:wmo:42047:1,2017-02-05T04:30:00Z,27.8966,-93.5973,1021.95,11111222 
TABS,ioos:station:wmo:42047:1,2017-02-05T05:00:00Z,27.8966,-93.5973,1021.84,11111222 
TABS,ioos:station:wmo:42047:1,2017-02-05T05:30:00Z,27.8966,-93.5973,1021.43,11111222 
TABS,ioos:station:wmo:42047:1,2017-02-05T06:00:00Z,27.8966,-93.5973,1021.19,11111222 
TABS,ioos:station:wmo:42047:1,2017-02-05T06:30:00Z,27.8966,-93.5973,1020.9,11111222 
TABS,ioos:station:wmo:42047:1,2017-02-05T07:00:00Z,27.8966,-93.5973,1020.49,11111222 
TABS,ioos:station:wmo:42047:1,2017-02-05T07:30:00Z,27.8966,-93.5973,1020.05,11111222 
TABS,ioos:station:wmo:42047:1,2017-02-05T08:00:00Z,27.8966,-93.5973,1019.92,11111222 
TABS,ioos:station:wmo:42047:1,2017-02-05T08:30:00Z,27.8966,-93.5973,1019.94,11111222 
TABS,ioos:station:wmo:42047:1,2017-02-05T09:00:00Z,27.8966,-93.5973,1019.6,11111222 
TABS,ioos:station:wmo:42047:1,2017-02-05T09:30:00Z,27.8966,-93.5973,1019.69,11111222 
TABS,ioos:station:wmo:42047:1,2017-02-05T10:00:00Z,27.8966,-93.5973,1019.52,11111222 
TABS,ioos:station:wmo:42047:1,2017-02-05T10:30:00Z,27.8966,-93.5973,1019.8,11111222 
TABS,ioos:station:wmo:42047:1,2017-02-05T11:00:00Z,27.8966,-93.5973,1019.75,11111222 
TABS,ioos:station:wmo:42047:1,2017-02-05T11:30:00Z,27.8966,-93.5973,1019.96,11111222 
TABS,ioos:station:wmo:42047:1,2017-02-05T12:00:00Z,27.8966,-93.5973,1020.0,11111222 
TABS,ioos:station:wmo:42047:1,2017-02-05T12:30:00Z,27.8966,-93.5973,1019.93,11111222 
TABS,ioos:station:wmo:42047:1,2017-02-05T13:00:00Z,27.8966,-93.5973,1020.29,11111222 
TABS,ioos:station:wmo:42047:1,2017-02-05T13:30:00Z,27.8966,-93.5973,1020.38,11111222 
TABS,ioos:station:wmo:42047:1,2017-02-05T14:00:00Z,27.8966,-93.5973,1020.58,11111222 
TABS,ioos:station:wmo:42047:1,2017-02-05T14:30:00Z,27.8966,-93.5973,1020.94,11111222 
TABS,ioos:station:wmo:42047:1,2017-02-05T15:00:00Z,27.8966,-93.5973,1021.44,11111222 
TABS,ioos:station:wmo:42047:1,2017-02-05T15:30:00Z,27.8966,-93.5973,1021.76,11111222 
TABS,ioos:station:wmo:42047:1,2017-02-05T16:00:00Z,27.8966,-93.5973,1021.93,11111222 
TABS,ioos:station:wmo:42047:1,2017-02-05T16:30:00Z,27.8966,-93.5973,1022.13,11111222 
TABS,ioos:station:wmo:42047:1,2017-02-05T17:00:00Z,27.8966,-93.5973,1021.91,11111222 
TABS,ioos:station:wmo:42047:1,2017-02-05T17:30:00Z,27.8966,-93.5973,1021.66,11111222 
TABS,ioos:station:wmo:42047:1,2017-02-05T18:00:00Z,27.8966,-93.5973,1021.21,11111222 
TABS,ioos:station:wmo:42047:1,2017-02-05T18:30:00Z,27.8966,-93.5973,1020.67,11111222 
TABS,ioos:station:wmo:42047:1,2017-02-05T19:00:00Z,27.8966,-93.5973,1019.9,11111222 
TABS,ioos:station:wmo:42047:1,2017-02-05T19:30:00Z,27.8966,-93.5973,1019.71,11111222 
TABS,ioos:station:wmo:42047:1,2017-02-05T20:00:00Z,27.8966,-93.5973,1019.29,11111222 
TABS,ioos:station:wmo:42047:1,2017-02-05T20:30:00Z,27.8966,-93.5973,1019.01,11111222 
TABS,ioos:station:wmo:42047:1,2017-02-05T21:00:00Z,27.8966,-93.5973,1018.83,11111222 
TABS,ioos:station:wmo:42047:1,2017-02-05T21:30:00Z,27.8966,-93.5973,1018.73,11111222 
TABS,ioos:station:wmo:42047:1,2017-02-05T22:00:00Z,27.8966,-93.5973,1018.93,11111222 
TABS,ioos:station:wmo:42047:1,2017-02-05T22:30:00Z,27.8966,-93.5973,1018.91,11111222 
TABS,ioos:station:wmo:42047:1,2017-02-05T23:00:00Z,27.8966,-93.5973,1019.01,11111222 
TABS,ioos:station:wmo:42047:1,2017-02-05T23:30:00Z,27.8966,-93.5973,1019.31,11111222 
TABS,ioos:station:wmo:42047:1,2017-02-06T00:00:00Z,27.8966,-93.5973,1019.26,11111222 
TABS,ioos:station:wmo:42047:1,2017-02-06T00:30:00Z,27.8966,-93.5973,1019.27,11111222 
TABS,ioos:station:wmo:42047:1,2017-02-06T01:00:00Z,27.8966,-93.5973,1019.45,11111222 
TABS,ioos:station:wmo:42047:1,2017-02-06T01:30:00Z,27.8966,-93.5973,1019.69,11111222 
TABS,ioos:station:wmo:42047:1,2017-02-06T02:00:00Z,27.8966,-93.5973,1019.73,11111222 
TABS,ioos:station:wmo:42047:1,2017-02-06T02:30:00Z,27.8966,-93.5973,1019.62,11111222 
TABS,ioos:station:wmo:42047:1,2017-02-06T03:00:00Z,27.8966,-93.5973,1019.62,11111222 
TABS,ioos:station:wmo:42047:1,2017-02-06T03:30:00Z,27.8966,-93.5973,1019.56,11111222 
TABS,ioos:station:wmo:42047:1,2017-02-06T04:00:00Z,27.8966,-93.5973,1019.55,11111222 
TABS,ioos:station:wmo:42047:1,2017-02-06T04:30:00Z,27.8966,-93.5973,1019.45,11111222 
TABS,ioos:station:wmo:42047:1,2017-02-06T05:00:00Z,27.8966,-93.5973,1019.23,11111222 
TABS,ioos:station:wmo:42047:1,2017-02-06T05:30:00Z,27.8966,-93.5973,1019.16,11111222 
TABS,ioos:station:wmo:42047:1,2017-02-06T06:00:00Z,27.8966,-93.5973,1018.85,11111222 
TABS,ioos:station:wmo:42047:1,2017-02-06T06:30:00Z,27.8966,-93.5973,1018.69,11111222 
TABS,ioos:station:wmo:42047:1,2017-02-06T07:00:00Z,27.8966,-93.5973,1018.24,11111222 
TABS,ioos:station:wmo:42047:1,2017-02-06T07:30:00Z,27.8966,-93.5973,1017.7,11111222 
TABS,ioos:station:wmo:42047:1,2017-02-06T08:00:00Z,27.8966,-93.5973,1017.22,11111222 
TABS,ioos:station:wmo:42047:1,2017-02-06T08:30:00Z,27.8966,-93.5973,1016.79,11111222 
TABS,ioos:station:wmo:42047:1,2017-02-06T09:00:00Z,27.8966,-93.5973,1016.39,11111222 
TABS,ioos:station:wmo:42047:1,2017-02-06T09:30:00Z,27.8966,-93.5973,1016.37,11111222 
TABS,ioos:station:wmo:42047:1,2017-02-06T10:00:00Z,27.8966,-93.5973,1016.41,11111222 
TABS,ioos:station:wmo:42047:1,2017-02-06T10:30:00Z,27.8966,-93.5973,1016.66,11111222 
TABS,ioos:station:wmo:42047:1,2017-02-06T11:00:00Z,27.8966,-93.5973,1016.91,11111222 
TABS,ioos:station:wmo:42047:1,2017-02-06T11:30:00Z,27.8966,-93.5973,1016.98,11111222 
TABS,ioos:station:wmo:42047:1,2017-02-06T12:00:00Z,27.8966,-93.5973,1017.39,11111222 
TABS,ioos:station:wmo:42047:1,2017-02-06T12:30:00Z,27.8966,-93.5973,1017.89,11111222 
TABS,ioos:station:wmo:42047:1,2017-02-06T13:00:00Z,27.8966,-93.5973,1018.04,11111222 
TABS,ioos:station:wmo:42047:1,2017-02-06T13:30:00Z,27.8966,-93.5973,1018.46,11111222 
TABS,ioos:station:wmo:42047:1,2017-02-06T14:00:00Z,27.8966,-93.5973,1018.76,11111222 
TABS,ioos:station:wmo:42047:1,2017-02-06T14:30:00Z,27.8966,-93.5973,1018.87,11111222 
TABS,ioos:station:wmo:42047:1,2017-02-06T15:00:00Z,27.8966,-93.5973,1019.44,11111222 
TABS,ioos:station:wmo:42047:1,2017-02-06T15:30:00Z,27.8966,-93.5973,1019.8,11111222 
TABS,ioos:station:wmo:42047:1,2017-02-06T16:00:00Z,27.8966,-93.5973,1019.58,11111222 
TABS,ioos:station:wmo:42047:1,2017-02-06T16:30:00Z,27.8966,-93.5973,1019.51,11111222 
TABS,ioos:station:wmo:42047:1,2017-02-06T17:00:00Z,27.8966,-93.5973,1019.26,11111222 
TABS,ioos:station:wmo:42047:1,2017-02-06T17:30:00Z,27.8966,-93.5973,1018.94,11111222 
TABS,ioos:station:wmo:42047:1,2017-02-06T18:00:00Z,27.8966,-93.5973,1018.5,11111222 
TABS,ioos:station:wmo:42047:1,2017-02-06T18:30:00Z,27.8966,-93.5973,1018.1,11111222 